Flag for India Weather past 2 weeks in Qadian, Punjab, India

Now
52 °F

Fog.


Feels Like: 52 °F
Forecast: 35 / 62 °F
Wind: No wind

Location: Amritsar Airport

Current Time: Dec 26, 2014 at 6:24:45 PM

Latest Report: Dec 26, 2014 at 5:30 PM


Visibility: 1 mi

Pressure: 30.04 "Hg

Humidity: 88%

Dew point: 48 °F

Location of QadianLocation

Historic Weather in Qadian — Graph

°F

Qadian temperature yesterday

Maximum temperature yesterday: 54 °F (at 3:00 PM)
Minimum temperature yesterday: 41 °F (at 12:30 AM)
Average temperature yesterday: 46 °F

Past Weeks' High & Low Weather Summary

 TemperatureHumidityPressure
High70 °F (Dec 12, 2:30 PM)100% (Dec 14, 7:30 AM)30.27 "Hg (Dec 14, 7:30 AM)
Low37 °F (Dec 16, 7:30 AM)28% (Dec 11, 5:00 PM)29.71 "Hg (Dec 22, 1:30 PM)
Average50 °F87%30.10 "Hg
* Reported Dec 11 4:30 PM — Dec 26 5:00 PM, Qadian, Weather by CustomWeather, © 2014

Note: Actual official high and low records may vary slightly from our data, if they occured in-between our weather recording intervals... More about our weather records

Advertising

Qadian weather history for previous 24 hours

 ConditionsComfort  
Time TempWeatherWind HumidityBarometerVisibility
5:00 PM
Dec 26
54 °FFog.No wind82%30.04 "Hg1 mi
4:30 PM54 °FFog.No wind82%30.04 "Hg1 mi
4:00 PM55 °FFog.No wind77%30.04 "Hg1 mi
3:30 PM54 °FFog.1 mph82%30.04 "Hg1 mi
3:00 PM54 °FFog.No wind82%30.07 "Hg1 mi
2:30 PM54 °FFog.No wind77%30.07 "Hg1 mi
2:00 PM52 °FFog.2 mph82%30.07 "Hg1 mi
1:30 PM52 °FFog.3 mph82%30.09 "Hg1 mi
12:30 PM48 °FFog.5 mph100%30.12 "Hg1 mi
11:30 AM46 °FFog.3 mph100%30.15 "Hg0 mi
11:00 AM46 °FFog.No wind100%30.15 "Hg0 mi
10:00 AM46 °FFog.2 mph100%30.15 "Hg0 mi
9:30 AM46 °FFog.3 mph100%30.12 "Hg0 mi
9:00 AM46 °FFog.3 mph100%30.12 "Hg0 mi
8:00 AM46 °FFog.6 mph100%30.09 "Hg0 mi
7:30 AM46 °FFog.6 mph100%30.09 "Hg0 mi
7:00 AM46 °FFog.7 mph100%30.09 "Hg0 mi
6:30 AM46 °FFog.6 mph100%30.07 "Hg0 mi
6:00 AM45 °FFog.2 mph100%30.07 "Hg0 mi
5:30 AM46 °FFog.No wind100%30.07 "Hg0 mi
5:00 AM46 °FFog.No wind100%30.07 "Hg0 mi
4:30 AM46 °FFog.No wind100%30.07 "Hg0 mi
4:00 AM46 °FFog.No wind100%30.07 "Hg0 mi
3:30 AM46 °FFog.No wind100%30.09 "Hg0 mi
3:00 AM46 °FFog.No wind100%30.09 "Hg0 mi
2:30 AM46 °FFog.No wind100%30.09 "Hg0 mi
2:00 AM46 °FFog.No wind100%30.09 "Hg0 mi
1:30 AM46 °FFog.No wind100%30.09 "Hg0 mi
1:00 AM46 °FFog.No wind100%30.09 "Hg0 mi
12:00 AM46 °FFog.No wind100%30.12 "Hg0 mi
11:30 PM
Dec 25
46 °FFog.No wind100%30.12 "Hg0 mi
11:00 PM46 °FFog.No wind100%30.12 "Hg0 mi
10:30 PM46 °FFog.No wind100%30.12 "Hg0 mi
10:00 PM48 °FFog.No wind100%30.12 "Hg0 mi
9:30 PM48 °FFog.No wind100%30.12 "Hg0 mi
8:30 PM46 °FFog.No wind100%30.12 "Hg0 mi
8:00 PM46 °FFog.No wind100%30.12 "Hg0 mi
7:30 PM46 °FFog.No wind100%30.12 "Hg0 mi
7:00 PM46 °FFog.No wind100%30.09 "Hg0 mi
Weather by CustomWeather, © 2014

See weather overviewHow to use our weather pages